,,,PA_Meas_PMT16A,,PR_Meas_QMR101_102,,RH_Meas_QMH101,,SR_Meas_QMS101,,TA_Meas_QMH101,,GenWind,,GenWind,
date,time,status,PA,status,PR,status,RH,status,SR,status,TA,status,DirAvg,status,SpdAvg,
2012-08-13, 00:00:04,VALID,1002.09,VALID,0,VALID,78.257,VALID,0,VALID,24.8741,VALID,121,VALID,1.36797,
2012-08-13, 00:01:04,VALID,1002.07,VALID,0,VALID,78.3333,VALID,0,VALID,24.8527,VALID,118,VALID,1.03945,
2012-08-13, 00:02:04,VALID,1002.07,VALID,0,VALID,78.4554,VALID,0,VALID,24.8332,VALID,112,VALID,1.24727,
2012-08-13, 00:03:04,VALID,1002.05,VALID,0,VALID,78.7148,VALID,0,VALID,24.7941,VALID,120,VALID,0.985937,
2012-08-13, 00:04:04,VALID,1002.05,VALID,0,VALID,78.8369,VALID,0,VALID,24.7551,VALID,124,VALID,1.10742,
2012-08-13, 00:05:04,VALID,1002.04,VALID,0,VALID,78.9742,VALID,0,VALID,24.7356,VALID,124,VALID,0.954687,
2012-08-13, 00:06:04,VALID,1002.03,VALID,0,VALID,78.9971,VALID,0,VALID,24.6946,VALID,120,VALID,0.833984,
2012-08-13, 00:07:04,VALID,1002.04,VALID,0,VALID,78.9437,VALID,0,VALID,24.716,VALID,118,VALID,1.09492,
2012-08-13, 00:08:04,VALID,1002.03,VALID,0,VALID,78.7453,VALID,0,VALID,24.7551,VALID,142,VALID,1.41641,
2012-08-13, 00:09:04,VALID,1002.02,VALID,0,VALID,78.524,VALID,0,VALID,24.7941,VALID,135,VALID,1.51641,
2012-08-13, 00:10:04,VALID,1002.01,VALID,0,VALID,78.3943,VALID,0,VALID,24.8332,VALID,141,VALID,1.47305,
2012-08-13, 00:11:04,VALID,1001.99,VALID,0,VALID,78.3638,VALID,0,VALID,24.8722,VALID,149,VALID,1.32852,
2012-08-13, 00:12:04,VALID,1001.95,VALID,0,VALID,78.2189,VALID,0,VALID,24.8703,VALID,152,VALID,1.36211,
2012-08-13, 00:13:04,VALID,1001.93,VALID,0,VALID,78.0739,VALID,0,VALID,24.9093,VALID,153,VALID,1.24492,
2012-08-13, 00:14:04,VALID,1001.92,VALID,0,VALID,78.0815,VALID,0,VALID,24.9503,VALID,149,VALID,1.41719,
2012-08-13, 00:15:04,VALID,1001.9,VALID,0,VALID,78.0815,VALID,0,VALID,24.9503,VALID,152,VALID,1.2543,
2012-08-13, 00:16:04,VALID,1001.89,VALID,0,VALID,77.5704,VALID,0,VALID,24.9679,VALID,140,VALID,2.2793,
2012-08-13, 00:17:04,VALID,1001.87,VALID,0,VALID,77.6314,VALID,0,VALID,25.0284,VALID,155,VALID,1.7,
2012-08-13, 00:18:04,VALID,1001.89,VALID,0,VALID,77.5704,VALID,0,VALID,25.0284,VALID,155,VALID,1.45586,
2012-08-13, 00:19:04,VALID,1001.9,VALID,0,VALID,77.4788,VALID,0,VALID,25.0284,VALID,150,VALID,1.49258,
2012-08-13, 00:20:04,VALID,1001.86,VALID,0,VALID,77.494,VALID,0,VALID,25.0265,VALID,149,VALID,1.66289,
2012-08-13, 00:21:04,VALID,1001.89,VALID,0,VALID,77.6695,VALID,0,VALID,25.0284,VALID,144,VALID,1.07461,
2012-08-13, 00:22:04,VALID,1001.86,VALID,0,VALID,77.8145,VALID,0,VALID,24.9893,VALID,150,VALID,1.14688,
2012-08-13, 00:23:04,VALID,1001.86,VALID,0,VALID,77.7611,VALID,0,VALID,24.9893,VALID,140,VALID,1.3457,
2012-08-13, 00:24:04,VALID,1001.82,VALID,0,VALID,77.5627,VALID,0,VALID,24.9679,VALID,140,VALID,1.95117,
2012-08-13, 00:25:04,VALID,1001.78,VALID,0,VALID,77.6619,VALID,0,VALID,24.9679,VALID,143,VALID,1.69805,
2012-08-13, 00:26:04,VALID,1001.78,VALID,0,VALID,77.6695,VALID,0,VALID,24.9893,VALID,146,VALID,1.51055,
2012-08-13, 00:27:04,VALID,1001.76,VALID,0,VALID,77.578,VALID,0,VALID,24.9893,VALID,148,VALID,1.69219,
2012-08-13, 00:28:04,VALID,1001.77,VALID,0,VALID,77.4864,VALID,0,VALID,24.9698,VALID,146,VALID,2.03789,
2012-08-13, 00:29:04,VALID,1001.76,VALID,0,VALID,77.3567,VALID,0,VALID,24.9874,VALID,147,VALID,1.99414,
2012-08-13, 00:30:04,VALID,1001.71,VALID,0,VALID,77.4178,VALID,0,VALID,24.9874,VALID,143,VALID,2.09453,
2012-08-13, 00:31:04,VALID,1001.7,VALID,0,VALID,77.5093,VALID,0,VALID,24.9874,VALID,132,VALID,1.95781,
2012-08-13, 00:32:04,VALID,1001.68,VALID,0,VALID,77.5017,VALID,0,VALID,24.9698,VALID,137,VALID,2.09297,
2012-08-13, 00:33:04,VALID,1001.64,VALID,0,VALID,77.5704,VALID,0,VALID,24.9484,VALID,134,VALID,2.34531,
2012-08-13, 00:34:04,VALID,1001.67,VALID,0,VALID,77.5093,VALID,0,VALID,24.9698,VALID,134,VALID,2.66172,
2012-08-13, 00:35:04,VALID,1001.62,VALID,0,VALID,77.4254,VALID,0,VALID,24.9893,VALID,142,VALID,2.14492,
2012-08-13, 00:36:04,VALID,1001.61,VALID,0,VALID,77.5932,VALID,0,VALID,24.9698,VALID,135,VALID,1.96641,
2012-08-13, 00:37:04,VALID,1001.59,VALID,0,VALID,77.7763,VALID,0,VALID,24.9503,VALID,140,VALID,1.82109,
2012-08-13, 00:38:04,VALID,1001.57,VALID,0,VALID,77.6161,VALID,0,VALID,24.9289,VALID,146,VALID,2.23594,
2012-08-13, 00:39:04,VALID,1001.54,VALID,0,VALID,77.6848,VALID,0,VALID,24.9289,VALID,150,VALID,1.71406,
2012-08-13, 00:40:04,VALID,1001.51,VALID,0,VALID,77.6695,VALID,0,VALID,24.9289,VALID,138,VALID,2.23359,
2012-08-13, 00:41:04,VALID,1001.47,VALID,0,VALID,77.4559,VALID,0,VALID,24.9484,VALID,138,VALID,2.87109,
2012-08-13, 00:42:04,VALID,1001.46,VALID,0,VALID,77.4483,VALID,0,VALID,24.9484,VALID,137,VALID,2.52383,
2012-08-13, 00:43:04,VALID,1001.4,VALID,0,VALID,77.4559,VALID,0,VALID,24.9893,VALID,135,VALID,1.98945,
2012-08-13, 00:44:04,VALID,1001.39,VALID,0,VALID,77.639,VALID,0,VALID,24.9484,VALID,141,VALID,1.75625,
2012-08-13, 00:45:04,VALID,1001.34,VALID,0,VALID,77.784,VALID,0,VALID,24.9112,VALID,128,VALID,2.02773,
2012-08-13, 00:46:04,VALID,1001.32,VALID,0,VALID,78.0663,VALID,0,VALID,24.8722,VALID,131,VALID,1.78789,
2012-08-13, 00:47:04,VALID,1001.3,VALID,0,VALID,78.1807,VALID,0,VALID,24.8313,VALID,122,VALID,1.96094,
2012-08-13, 00:48:04,VALID,1001.24,VALID,0,VALID,77.9671,VALID,0,VALID,24.8527,VALID,122,VALID,2.23477,
2012-08-13, 00:49:04,VALID,1001.22,VALID,0,VALID,78.1502,VALID,0,VALID,24.8117,VALID,125,VALID,1.98906,
2012-08-13, 00:50:04,VALID,1001.23,VALID,0,VALID,78.196,VALID,0,VALID,24.8332,VALID,127,VALID,2.86875,
2012-08-13, 00:51:04,VALID,1001.2,VALID,0,VALID,78.318,VALID,0,VALID,24.8136,VALID,134,VALID,2.08125,
2012-08-13, 00:52:04,VALID,1001.19,VALID,0,VALID,78.4172,VALID,0,VALID,24.7941,VALID,135,VALID,1.99063,
2012-08-13, 00:53:04,VALID,1001.2,VALID,0,VALID,78.402,VALID,0,VALID,24.7941,VALID,129,VALID,2.98984,
2012-08-13, 00:54:04,VALID,1001.21,VALID,0,VALID,78.5317,VALID,0,VALID,24.7532,VALID,130,VALID,2.00391,
2012-08-13, 00:55:04,VALID,1001.19,VALID,0,VALID,78.6843,VALID,0,VALID,24.7356,VALID,131,VALID,2.02773,
2012-08-13, 00:56:04,VALID,1001.18,VALID,0,VALID,78.8903,VALID,0,VALID,24.716,VALID,125,VALID,1.29688,
2012-08-13, 00:57:04,VALID,1001.14,VALID,0,VALID,79.0658,VALID,0,VALID,24.6556,VALID,130,VALID,1.26875,
2012-08-13, 00:58:04,VALID,1001.15,VALID,0,VALID,79.1421,VALID,0,VALID,24.6166,VALID,136,VALID,1.79062,
2012-08-13, 00:59:04,VALID,1001.11,VALID,0,VALID,79.287,VALID,0,VALID,24.5989,VALID,129,VALID,1.91016,
2012-08-13, 01:00:04,VALID,1001.12,VALID,0,VALID,79.3404,VALID,0,VALID,24.5989,VALID,142,VALID,1.51758,
2012-08-13, 01:01:04,VALID,1001.1,VALID,0,VALID,79.3786,VALID,0,VALID,24.5794,VALID,135,VALID,1.30117,
2012-08-13, 01:02:04,VALID,1001.09,VALID,0,VALID,79.3404,VALID,0,VALID,24.5599,VALID,145,VALID,1.38437,
2012-08-13, 01:03:04,VALID,1001.12,VALID,0,VALID,79.1802,VALID,0,VALID,24.5794,VALID,149,VALID,1.45273,
2012-08-13, 01:04:04,VALID,1001.09,VALID,0,VALID,79.1115,VALID,0,VALID,24.5971,VALID,139,VALID,1.21875,
2012-08-13, 01:05:04,VALID,1001.09,VALID,0,VALID,79.1649,VALID,0,VALID,24.5989,VALID,149,VALID,1.01523,
2012-08-13, 01:06:04,VALID,1001.06,VALID,0,VALID,79.2107,VALID,0,VALID,24.5989,VALID,149,VALID,1.27891,
2012-08-13, 01:07:04,VALID,1001.03,VALID,0,VALID,79.1802,VALID,0,VALID,24.5989,VALID,148,VALID,1.15977,
2012-08-13, 01:08:04,VALID,1001,VALID,0,VALID,78.8979,VALID,0,VALID,24.5794,VALID,136,VALID,1.6668,
2012-08-13, 01:09:04,VALID,1000.97,VALID,0,VALID,78.3943,VALID,0,VALID,24.6361,VALID,147,VALID,1.81758,
2012-08-13, 01:10:04,VALID,1000.96,VALID,0,VALID,78.2494,VALID,0,VALID,24.6946,VALID,135,VALID,1.22734,
2012-08-13, 01:11:04,VALID,1000.92,VALID,0,VALID,78.3486,VALID,0,VALID,24.6556,VALID,124,VALID,1.18242,
2012-08-13, 01:12:04,VALID,1000.91,VALID,0,VALID,78.6385,VALID,0,VALID,24.638,VALID,132,VALID,1.94961,
2012-08-13, 01:13:04,VALID,1000.91,VALID,0,VALID,78.7987,VALID,0,VALID,24.6575,VALID,127,VALID,1.44102,
2012-08-13, 01:14:04,VALID,1000.86,VALID,0,VALID,78.875,VALID,0,VALID,24.5971,VALID,137,VALID,1.22695,
2012-08-13, 01:15:04,VALID,1000.88,VALID,0,VALID,78.9818,VALID,0,VALID,24.5989,VALID,138,VALID,1.64219,
2012-08-13, 01:16:04,VALID,1000.88,VALID,0,VALID,79.1421,VALID,0,VALID,24.5599,VALID,131,VALID,1.2707,
2012-08-13, 01:17:04,VALID,1000.83,VALID,0,VALID,79.3557,VALID,0,VALID,24.5404,VALID,131,VALID,1.31953,
2012-08-13, 01:18:04,VALID,1000.84,VALID,0,VALID,79.3862,VALID,0,VALID,24.5013,VALID,136,VALID,1.14883,
2012-08-13, 01:19:04,VALID,1000.86,VALID,0,VALID,79.5998,VALID,0,VALID,24.4604,VALID,128,VALID,1.08555,
2012-08-13, 01:20:04,VALID,1000.85,VALID,0,VALID,79.7295,VALID,0,VALID,24.4428,VALID,127,VALID,1.12695,
2012-08-13, 01:21:04,VALID,1000.86,VALID,0,VALID,79.7524,VALID,0,VALID,24.4019,VALID,133,VALID,1.21094,
2012-08-13, 01:22:04,VALID,1000.82,VALID,0,VALID,79.7295,VALID,0,VALID,24.4233,VALID,130,VALID,0.838281,
2012-08-13, 01:23:04,VALID,1000.84,VALID,0,VALID,79.7066,VALID,0,VALID,24.3824,VALID,121,VALID,1.02617,
2012-08-13, 01:24:04,VALID,1000.81,VALID,0,VALID,79.8669,VALID,0,VALID,24.3647,VALID,114,VALID,1.38828,
2012-08-13, 01:25:04,VALID,1000.81,VALID,0,VALID,79.699,VALID,0,VALID,24.4019,VALID,124,VALID,1.59922,
2012-08-13, 01:26:04,VALID,1000.77,VALID,0,VALID,79.6303,VALID,0,VALID,24.4214,VALID,113,VALID,1.59375,
2012-08-13, 01:27:04,VALID,1000.78,VALID,0,VALID,79.6303,VALID,0,VALID,24.4214,VALID,118,VALID,1.51797,
2012-08-13, 01:28:04,VALID,1000.8,VALID,0,VALID,79.6685,VALID,0,VALID,24.4428,VALID,122,VALID,1.69297,
2012-08-13, 01:29:04,VALID,1000.81,VALID,0,VALID,79.7066,VALID,0,VALID,24.4428,VALID,112,VALID,1.46328,
2012-08-13, 01:30:04,VALID,1000.79,VALID,0,VALID,79.5693,VALID,0,VALID,24.4409,VALID,119,VALID,1.72031,
2012-08-13, 01:31:04,VALID,1000.81,VALID,0,VALID,79.4015,VALID,0,VALID,24.5013,VALID,125,VALID,1.5332,
2012-08-13, 01:32:04,VALID,1000.8,VALID,0,VALID,79.3252,VALID,0,VALID,24.5209,VALID,123,VALID,1.20391,
2012-08-13, 01:33:04,VALID,1000.82,VALID,0,VALID,79.2641,VALID,0,VALID,24.5209,VALID,127,VALID,1.22148,
2012-08-13, 01:34:04,VALID,1000.78,VALID,0,VALID,79.2946,VALID,0,VALID,24.5209,VALID,126,VALID,1.16211,
2012-08-13, 01:35:04,VALID,1000.82,VALID,0,VALID,79.3938,VALID,0,VALID,24.5209,VALID,124,VALID,1.37969,
2012-08-13, 01:36:04,VALID,1000.81,VALID,0,VALID,79.4091,VALID,0,VALID,24.5013,VALID,133,VALID,1.54453,
2012-08-13, 01:37:04,VALID,1000.76,VALID,0,VALID,79.4625,VALID,0,VALID,24.5013,VALID,157,VALID,1.8,
2012-08-13, 01:38:04,VALID,1000.78,VALID,0,VALID,79.3557,VALID,0,VALID,24.5209,VALID,161,VALID,1.61914,
2012-08-13, 01:39:04,VALID,1000.78,VALID,0,VALID,79.3633,VALID,0,VALID,24.5209,VALID,143,VALID,1.81562,
2012-08-13, 01:40:04,VALID,1000.74,VALID,0,VALID,79.3252,VALID,0,VALID,24.4995,VALID,143,VALID,1.64297,
2012-08-13, 01:41:04,VALID,1000.73,VALID,0,VALID,79.3099,VALID,0,VALID,24.5209,VALID,147,VALID,1.58633,
2012-08-13, 01:42:04,VALID,1000.72,VALID,0,VALID,79.2718,VALID,0,VALID,24.5209,VALID,136,VALID,1.55742,
2012-08-13, 01:43:04,VALID,1000.71,VALID,0,VALID,79.287,VALID,0,VALID,24.5013,VALID,132,VALID,1.24961,
2012-08-13, 01:44:04,VALID,1000.69,VALID,0,VALID,79.348,VALID,0,VALID,24.4623,VALID,138,VALID,1.81562,
2012-08-13, 01:45:04,VALID,1000.73,VALID,0,VALID,79.2565,VALID,0,VALID,24.5209,VALID,148,VALID,1.59063,
2012-08-13, 01:46:04,VALID,1000.73,VALID,0,VALID,79.1039,VALID,0,VALID,24.5404,VALID,138,VALID,1.63789,
2012-08-13, 01:47:04,VALID,1000.74,VALID,0,VALID,78.7529,VALID,0,VALID,24.5599,VALID,151,VALID,1.83672,
2012-08-13, 01:48:04,VALID,1000.73,VALID,0,VALID,78.6461,VALID,0,VALID,24.5989,VALID,144,VALID,1.3875,
2012-08-13, 01:49:04,VALID,1000.76,VALID,0,VALID,78.6919,VALID,0,VALID,24.5794,VALID,138,VALID,1.51211,
2012-08-13, 01:50:04,VALID,1000.74,VALID,0,VALID,78.7224,VALID,0,VALID,24.5599,VALID,129,VALID,1.29688,
2012-08-13, 01:51:04,VALID,1000.76,VALID,0,VALID,78.8674,VALID,0,VALID,24.5209,VALID,141,VALID,1.18008,
2012-08-13, 01:52:04,VALID,1000.73,VALID,0,VALID,78.9742,VALID,0,VALID,24.5209,VALID,158,VALID,1.35859,
2012-08-13, 01:53:04,VALID,1000.78,VALID,0,VALID,78.9666,VALID,0,VALID,24.5209,VALID,138,VALID,1.24961,
2012-08-13, 01:54:04,VALID,1000.76,VALID,0,VALID,79.1192,VALID,0,VALID,24.4818,VALID,146,VALID,1.30977,
2012-08-13, 01:55:04,VALID,1000.76,VALID,0,VALID,79.1726,VALID,0,VALID,24.5013,VALID,161,VALID,1.16953,
2012-08-13, 01:56:04,VALID,1000.78,VALID,0,VALID,79.1192,VALID,0,VALID,24.4995,VALID,153,VALID,1.38594,
2012-08-13, 01:57:04,VALID,1000.76,VALID,0,VALID,79.1344,VALID,0,VALID,24.5013,VALID,157,VALID,1.44375,
2012-08-13, 01:58:04,VALID,1000.76,VALID,0,VALID,79.1726,VALID,0,VALID,24.5013,VALID,165,VALID,1.42891,
2012-08-13, 01:59:04,VALID,1000.74,VALID,0,VALID,79.0658,VALID,0,VALID,24.5404,VALID,155,VALID,1.26172,
2012-08-13, 02:00:04,VALID,1000.73,VALID,0,VALID,78.9284,VALID,0,VALID,24.5404,VALID,154,VALID,1.46563,
2012-08-13, 02:01:04,VALID,1000.75,VALID,0,VALID,78.9361,VALID,0,VALID,24.5404,VALID,142,VALID,1.21914,
2012-08-13, 02:02:04,VALID,1000.74,VALID,0,VALID,78.9895,VALID,0,VALID,24.5209,VALID,158,VALID,1.49688,
2012-08-13, 02:03:04,VALID,1000.72,VALID,0,VALID,79.0352,VALID,0,VALID,24.5013,VALID,139,VALID,0.849609,
2012-08-13, 02:04:04,VALID,1000.72,VALID,0,VALID,79.1192,VALID,0,VALID,24.4818,VALID,161,VALID,1.11953,
2012-08-13, 02:05:04,VALID,1000.66,VALID,0,VALID,79.1955,VALID,0,VALID,24.4623,VALID,152,VALID,1.1082,
2012-08-13, 02:06:04,VALID,1000.65,VALID,0,VALID,79.2794,VALID,0,VALID,24.4037,VALID,143,VALID,0.905859,
2012-08-13, 02:07:04,VALID,1000.64,VALID,0,VALID,79.3557,VALID,0,VALID,24.3647,VALID,134,VALID,1.24531,
2012-08-13, 02:08:04,VALID,1000.63,VALID,0,VALID,79.7143,VALID,0,VALID,24.3062,VALID,130,VALID,2.22031,
2012-08-13, 02:09:04,VALID,1000.59,VALID,0,VALID,80.0042,VALID,0,VALID,24.3043,VALID,127,VALID,2.0918,
2012-08-13, 02:10:04,VALID,1000.6,VALID,0,VALID,80.0652,VALID,0,VALID,24.3062,VALID,140,VALID,1.87422,
2012-08-13, 02:11:04,VALID,1000.61,VALID,0,VALID,80.1339,VALID,0,VALID,24.2866,VALID,129,VALID,1.60156,
2012-08-13, 02:12:04,VALID,1000.58,VALID,0,VALID,80.2026,VALID,0,VALID,24.2476,VALID,114,VALID,1.56875,
2012-08-13, 02:13:04,VALID,1000.6,VALID,0,VALID,80.4315,VALID,0,VALID,24.2067,VALID,127,VALID,1.65937,
2012-08-13, 02:14:04,VALID,1000.57,VALID,0,VALID,80.6832,VALID,0,VALID,24.1891,VALID,126,VALID,1.93516,
2012-08-13, 02:15:04,VALID,1000.55,VALID,0,VALID,80.6298,VALID,0,VALID,24.1696,VALID,135,VALID,2.05352,
2012-08-13, 02:16:04,VALID,1000.55,VALID,0,VALID,80.5001,VALID,0,VALID,24.2086,VALID,127,VALID,1.93086,
2012-08-13, 02:17:04,VALID,1000.54,VALID,0,VALID,80.3323,VALID,0,VALID,24.2476,VALID,122,VALID,2.08711,
2012-08-13, 02:18:04,VALID,1000.54,VALID,0,VALID,80.2178,VALID,0,VALID,24.2476,VALID,134,VALID,1.7625,
2012-08-13, 02:19:04,VALID,1000.56,VALID,0,VALID,80.3704,VALID,0,VALID,24.2281,VALID,127,VALID,1.64375,
2012-08-13, 02:20:04,VALID,1000.55,VALID,0,VALID,80.4391,VALID,0,VALID,24.2086,VALID,135,VALID,1.89492,
2012-08-13, 02:21:04,VALID,1000.54,VALID,0,VALID,80.4391,VALID,0,VALID,24.2281,VALID,131,VALID,1.75547,
2012-08-13, 02:22:04,VALID,1000.53,VALID,0,VALID,80.3704,VALID,0,VALID,24.1872,VALID,112,VALID,1.87656,
2012-08-13, 02:23:04,VALID,1000.53,VALID,0,VALID,80.4772,VALID,0,VALID,24.1891,VALID,125,VALID,1.53008,
2012-08-13, 02:24:04,VALID,1000.5,VALID,0,VALID,80.2941,VALID,0,VALID,24.1287,VALID,102,VALID,2.19531,
2012-08-13, 02:25:04,VALID,1000.53,VALID,0,VALID,80.3323,VALID,0,VALID,24.1482,VALID,118,VALID,2.33945,
2012-08-13, 02:26:04,VALID,1000.48,VALID,0,VALID,80.2941,VALID,0,VALID,24.1677,VALID,124,VALID,2.1043,
2012-08-13, 02:27:04,VALID,1000.47,VALID,0,VALID,78.875,VALID,0,VALID,24.2866,VALID,137,VALID,3.25938,
2012-08-13, 02:28:04,VALID,1000.48,VALID,0,VALID,78.5927,VALID,0,VALID,24.4019,VALID,135,VALID,1.89961,
2012-08-13, 02:29:04,VALID,1000.43,VALID,0,VALID,78.8598,VALID,0,VALID,24.4428,VALID,128,VALID,2.36875,
2012-08-13, 02:30:04,VALID,1000.41,VALID,0,VALID,79.1344,VALID,0,VALID,24.4037,VALID,136,VALID,1.93945,
2012-08-13, 02:31:04,VALID,1000.39,VALID,0,VALID,78.7072,VALID,0,VALID,24.3433,VALID,118,VALID,3.13516,
2012-08-13, 02:32:04,VALID,1000.34,VALID,0,VALID,78.3791,VALID,0,VALID,24.4019,VALID,124,VALID,2.8793,
2012-08-13, 02:33:04,VALID,1000.37,VALID,0,VALID,78.1273,VALID,0,VALID,24.4604,VALID,128,VALID,2.18086,
2012-08-13, 02:34:04,VALID,1000.36,VALID,0,VALID,77.8221,VALID,0,VALID,24.5013,VALID,122,VALID,2.10781,
2012-08-13, 02:35:04,VALID,1000.34,VALID,0,VALID,77.9976,VALID,0,VALID,24.48,VALID,128,VALID,1.56328,
2012-08-13, 02:36:04,VALID,1000.34,VALID,0,VALID,77.3567,VALID,0,VALID,24.5209,VALID,140,VALID,3.05664,
2012-08-13, 02:37:04,VALID,1000.33,VALID,0,VALID,77.2041,VALID,0,VALID,24.5794,VALID,132,VALID,2.40977,
2012-08-13, 02:38:04,VALID,1000.3,VALID,0,VALID,77.3338,VALID,0,VALID,24.519,VALID,135,VALID,2.48945,
2012-08-13, 02:39:04,VALID,1000.29,VALID,0,VALID,77.2118,VALID,0,VALID,24.5013,VALID,133,VALID,1.80352,
2012-08-13, 02:40:04,VALID,1000.23,VALID,0,VALID,77.0821,VALID,0,VALID,24.4409,VALID,128,VALID,2.41289,
2012-08-13, 02:41:04,VALID,1000.2,VALID,0,VALID,76.5175,VALID,0,VALID,24.5013,VALID,131,VALID,2.70391,
2012-08-13, 02:42:04,VALID,1000.26,VALID,0,VALID,76.5022,VALID,0,VALID,24.5404,VALID,136,VALID,2.21172,
2012-08-13, 02:43:04,VALID,1000.2,VALID,0,VALID,76.7616,VALID,0,VALID,24.5404,VALID,128,VALID,1.32422,
2012-08-13, 02:44:04,VALID,1000.22,VALID,0,VALID,76.9218,VALID,0,VALID,24.4818,VALID,145,VALID,1.37656,
2012-08-13, 02:45:04,VALID,1000.23,VALID,0,VALID,76.5022,VALID,0,VALID,24.4604,VALID,141,VALID,1.64258,
2012-08-13, 02:46:04,VALID,1000.19,VALID,0,VALID,75.4112,VALID,0,VALID,24.5599,VALID,141,VALID,4.04414,
2012-08-13, 02:47:04,VALID,1000.18,VALID,0,VALID,73.7784,VALID,0,VALID,24.7532,VALID,148,VALID,3.52109,
2012-08-13, 02:48:04,VALID,1000.17,VALID,0,VALID,72.8629,VALID,0,VALID,24.9874,VALID,150,VALID,2.59297,
2012-08-13, 02:49:04,VALID,1000.14,VALID,0,VALID,72.9697,VALID,0,VALID,25.0284,VALID,154,VALID,1.5168,
2012-08-13, 02:50:04,VALID,1000.12,VALID,0,VALID,72.7255,VALID,0,VALID,25.0088,VALID,156,VALID,2.27305,
2012-08-13, 02:51:04,VALID,1000.11,VALID,0,VALID,72.1991,VALID,0,VALID,25.046,VALID,145,VALID,3.04141,
2012-08-13, 02:52:04,VALID,1000.05,VALID,0,VALID,71.1233,VALID,0,VALID,25.204,VALID,153,VALID,3.96328,
2012-08-13, 02:53:04,VALID,1000.05,VALID,0,VALID,70.2688,VALID,0,VALID,25.3993,VALID,162,VALID,4.72617,
2012-08-13, 02:54:04,VALID,1000.03,VALID,0,VALID,69.9865,VALID,0,VALID,25.4774,VALID,160,VALID,3.53516,
2012-08-13, 02:55:04,VALID,999.993,VALID,0,VALID,69.6661,VALID,0,VALID,25.4774,VALID,158,VALID,4.1457,
2012-08-13, 02:56:04,VALID,1000.02,VALID,0,VALID,69.3609,VALID,0,VALID,25.575,VALID,168,VALID,3.6668,
2012-08-13, 02:57:04,VALID,999.968,VALID,0,VALID,68.8878,VALID,0,VALID,25.6316,VALID,165,VALID,5.65898,
2012-08-13, 02:58:04,VALID,999.994,VALID,0,VALID,68.7963,VALID,0,VALID,25.7312,VALID,160,VALID,4.0543,
2012-08-13, 02:59:04,VALID,999.977,VALID,0,VALID,68.9031,VALID,0,VALID,25.6511,VALID,159,VALID,3.52148,
2012-08-13, 03:00:04,VALID,999.941,VALID,0,VALID,68.6208,VALID,0,VALID,25.6921,VALID,175,VALID,4.35547,
2012-08-13, 03:01:04,VALID,999.957,VALID,0,VALID,68.3843,VALID,0,VALID,25.7292,VALID,168,VALID,4.37617,
2012-08-13, 03:02:04,VALID,999.909,VALID,0,VALID,67.8044,VALID,0,VALID,25.8073,VALID,180,VALID,5.14766,
2012-08-13, 03:03:04,VALID,999.892,VALID,0,VALID,67.6061,VALID,0,VALID,25.9069,VALID,163,VALID,5.29922,
2012-08-13, 03:04:04,VALID,999.914,VALID,0,VALID,67.6442,VALID,0,VALID,25.9069,VALID,165,VALID,4.40664,
2012-08-13, 03:05:04,VALID,999.895,VALID,0,VALID,67.9875,VALID,0,VALID,25.8483,VALID,173,VALID,3.65195,
2012-08-13, 03:06:04,VALID,999.855,VALID,0,VALID,67.8578,VALID,0,VALID,25.8679,VALID,176,VALID,3.95859,
2012-08-13, 03:07:04,VALID,999.878,VALID,0,VALID,68.1096,VALID,0,VALID,25.8483,VALID,165,VALID,3.75859,
2012-08-13, 03:08:04,VALID,999.78,VALID,0,VALID,67.9799,VALID,0,VALID,25.8268,VALID,164,VALID,3.88516,
2012-08-13, 03:09:04,VALID,999.817,VALID,0,VALID,68.1554,VALID,0,VALID,25.8093,VALID,171,VALID,3.69727,
2012-08-13, 03:10:04,VALID,999.829,VALID,0,VALID,68.308,VALID,0,VALID,25.8093,VALID,179,VALID,3.17695,
2012-08-13, 03:11:04,VALID,999.862,VALID,0,VALID,68.4072,VALID,0,VALID,25.7683,VALID,182,VALID,3.56953,
2012-08-13, 03:12:04,VALID,999.853,VALID,0,VALID,68.5445,VALID,0,VALID,25.7507,VALID,179,VALID,3.10508,
2012-08-13, 03:13:04,VALID,999.879,VALID,0,VALID,68.6284,VALID,0,VALID,25.7897,VALID,171,VALID,3.68555,
2012-08-13, 03:14:04,VALID,999.855,VALID,0,VALID,68.4987,VALID,0,VALID,25.7487,VALID,192,VALID,3.9457,
2012-08-13, 03:15:04,VALID,999.856,VALID,0,VALID,68.3919,VALID,0,VALID,25.8073,VALID,168,VALID,2.98086,
2012-08-13, 03:16:04,VALID,999.89,VALID,0,VALID,68.6895,VALID,0,VALID,25.7683,VALID,176,VALID,2.87539,
2012-08-13, 03:17:04,VALID,999.918,VALID,0,VALID,68.7047,VALID,0,VALID,25.7683,VALID,179,VALID,3.36328,
2012-08-13, 03:18:04,VALID,999.904,VALID,0,VALID,68.6666,VALID,0,VALID,25.7878,VALID,171,VALID,3.67617,
2012-08-13, 03:19:04,VALID,999.881,VALID,0,VALID,68.7658,VALID,0,VALID,25.7312,VALID,166,VALID,3.3168,
2012-08-13, 03:20:04,VALID,999.864,VALID,0,VALID,68.7429,VALID,0,VALID,25.7487,VALID,169,VALID,3.4832,
2012-08-13, 03:21:04,VALID,999.843,VALID,0,VALID,68.8497,VALID,0,VALID,25.7487,VALID,176,VALID,3.53945,
2012-08-13, 03:22:04,VALID,999.889,VALID,0,VALID,68.9794,VALID,0,VALID,25.7507,VALID,178,VALID,3.0332,
2012-08-13, 03:23:04,VALID,999.831,VALID,0,VALID,68.6437,VALID,0,VALID,25.7702,VALID,189,VALID,3.61016,
2012-08-13, 03:24:04,VALID,999.877,VALID,0,VALID,68.7352,VALID,0,VALID,25.7702,VALID,186,VALID,2.75898,
2012-08-13, 03:25:04,VALID,999.894,VALID,0,VALID,68.6742,VALID,0,VALID,25.7897,VALID,181,VALID,3.22617,
2012-08-13, 03:26:04,VALID,999.925,VALID,0,VALID,68.8878,VALID,0,VALID,25.7487,VALID,172,VALID,2.55625,
2012-08-13, 03:27:04,VALID,999.895,VALID,0,VALID,68.8726,VALID,0,VALID,25.7312,VALID,188,VALID,3.1875,
2012-08-13, 03:28:04,VALID,999.887,VALID,0,VALID,69.0633,VALID,0,VALID,25.7116,VALID,170,VALID,2.85117,
2012-08-13, 03:29:04,VALID,999.902,VALID,0,VALID,68.9718,VALID,0,VALID,25.6726,VALID,183,VALID,2.71953,
2012-08-13, 03:30:04,VALID,999.883,VALID,0,VALID,68.7658,VALID,0,VALID,25.6921,VALID,178,VALID,3.43047,
2012-08-13, 03:31:04,VALID,999.878,VALID,0,VALID,68.6284,VALID,0,VALID,25.7116,VALID,188,VALID,2.81953,
2012-08-13, 03:32:04,VALID,999.839,VALID,0,VALID,68.5521,VALID,0,VALID,25.7116,VALID,180,VALID,3.62969,
2012-08-13, 03:33:04,VALID,999.888,VALID,0,VALID,68.8955,VALID,0,VALID,25.6921,VALID,172,VALID,2.9082,
2012-08-13, 03:34:04,VALID,999.873,VALID,0,VALID,68.8955,VALID,0,VALID,25.6726,VALID,176,VALID,3.78086,
2012-08-13, 03:35:04,VALID,999.874,VALID,0,VALID,68.8192,VALID,0,VALID,25.6336,VALID,184,VALID,2.91953,
2012-08-13, 03:36:04,VALID,999.86,VALID,0,VALID,68.8421,VALID,0,VALID,25.5926,VALID,173,VALID,3.04336,
2012-08-13, 03:37:04,VALID,999.84,VALID,0,VALID,69.2007,VALID,0,VALID,25.575,VALID,159,VALID,2.75078,
2012-08-13, 03:38:04,VALID,999.847,VALID,0,VALID,69.5821,VALID,0,VALID,25.4559,VALID,151,VALID,2.51563,
2012-08-13, 03:39:04,VALID,999.84,VALID,0,VALID,71.0165,VALID,0,VALID,25.3017,VALID,116,VALID,2.04219,
2012-08-13, 03:40:04,VALID,999.843,VALID,0,VALID,72.3746,VALID,0,VALID,25.0869,VALID,110,VALID,1.98164,
2012-08-13, 03:41:04,VALID,999.824,VALID,0,VALID,73.6869,VALID,0,VALID,24.8527,VALID,109,VALID,1.67656,
2012-08-13, 03:42:04,VALID,999.822,VALID,0,VALID,74.5719,VALID,0,VALID,24.6965,VALID,113,VALID,1.1582,
2012-08-13, 03:43:04,VALID,999.872,VALID,0,VALID,75.1975,VALID,0,VALID,24.5599,VALID,133,VALID,1.08555,
2012-08-13, 03:44:04,VALID,999.816,VALID,0,VALID,76.1589,VALID,0,VALID,24.4623,VALID,137,VALID,1.49336,
2012-08-13, 03:45:04,VALID,999.822,VALID,0,VALID,76.8989,VALID,0,VALID,24.3043,VALID,130,VALID,1.01992,
2012-08-13, 03:46:04,VALID,999.789,VALID,0,VALID,77.6238,VALID,0,VALID,24.2281,VALID,130,VALID,1.06797,